Theta_e
303 307 316 321 323 323 326 326 327 329 334 336 337 336 337 338 340 342 346 348 349 350 352 352 353 352 352 351 351 351 351 350 349 350 351 350 350 349 349 350 350 348 349
305 307 314 319 321 322 324 324 325 327 326 327 328 331 334 335 337 337 341 345 347 348 350 351 352 353 352 351 350 348 350 349 348 349 351 350 350 350 350 350 349 348 349
304 307 309 316 319 320 321 322 322 322 323 323 323 325 328 331 334 336 336 338 343 347 348 350 351 352 351 351 348 348 348 348 348 349 350 348 348 350 349 349 349 350 350
303 305 310 314 315 318 318 319 320 320 320 320 320 321 321 324 327 330 333 335 336 342 347 348 349 350 351 350 348 347 347 347 347 348 348 347 347 350 348 349 350 350 349
303 304 308 313 313 315 316 317 318 318 318 318 318 318 318 319 320 323 326 330 333 335 340 346 346 348 347 347 346 346 346 345 346 346 347 347 347 348 348 347 348 348 346
303 304 306 311 311 312 314 314 316 316 315 315 315 316 316 316 316 317 320 325 329 331 334 335 341 344 344 343 344 344 344 344 344 346 346 347 347 348 348 347 345 345 345
303 304 303 308 309 310 312 313 314 314 314 313 313 313 313 313 314 314 316 320 324 328 329 331 331 334 341 343 341 342 342 343 345 346 345 347 347 348 348 347 346 345 345
303 303 303 305 307 307 310 311 312 313 311 311 311 311 310 309 310 311 312 315 318 323 326 326 327 328 331 339 341 340 339 342 344 346 344 345 347 347 347 347 346 345 345
304 303 303 302 303 304 307 309 309 310 309 308 308 308 306 306 308 309 309 312 314 316 321 323 325 324 327 330 339 338 338 339 344 346 344 346 346 347 347 346 346 346 346
303 303 303 303 302 302 303 307 307 307 307 306 305 305 303 304 305 306 307 309 310 311 313 317 320 322 322 326 334 338 337 338 344 345 345 343 345 346 347 347 346 346 345
302 303 303 302 302 302 301 302 304 305 305 304 303 303 300 300 301 303 304 305 306 308 308 311 314 317 318 321 327 337 336 343 343 345 346 341 345 347 346 346 345 345 345
300 301 301 302 301 301 300 302 302 302 302 301 300 299 298 299 300 301 303 303 303 304 305 306 309 311 312 313 319 328 341 341 341 343 346 340 344 347 346 346 344 345 344
300 301 301 301 302 301 300 300 300 301 300 300 300 298 297 297 299 299 300 300 299 301 299 303 301 305 306 309 312 319 330 340 340 342 343 339 343 346 347 345 345 345 344
299 300 301 300 301 301 300 299 300 299 299 298 298 298 296 296 297 298 299 299 299 298 297 298 303 300 303 305 308 312 320 333 339 340 343 336 340 345 347 345 345 345 344
299 300 301 301 301 300 300 299 299 299 298 297 297 297 296 295 295 296 297 297 297 298 296 296 300 301 299 303 305 308 315 319 337 339 342 334 337 342 345 347 345 345 345
300 300 300 301 301 300 299 299 298 299 298 296 296 296 297 296 295 295 296 296 296 297 296 295 296 298 299 301 301 305 312 317 322 338 339 339 333 338 342 344 345 346 345
300 299 299 300 301 300 299 298 298 298 297 295 295 296 296 296 295 295 293 293 293 295 295 294 295 296 297 299 300 304 308 315 319 335 339 338 337 332 336 339 341 343 344
299 299 300 299 299 300 299 298 298 297 296 295 295 295 295 295 295 294 292 292 293 293 293 293 293 293 294 296 299 300 302 307 315 321 336 339 335 337 334 334 337 340 341
299 299 299 299 298 298 298 298 298 297 296 296 295 295 295 295 295 294 292 293 293 293 292 293 292 294 294 294 296 300 300 303 310 320 334 336 336 337 337 332 333 334 337
298 298 298 298 298 298 297 297 296 295 295 296 295 295 295 295 295 294 293 294 293 292 292 293 292 293 293 294 294 298 302 304 309 319 332 333 335 334 339 337 335 334 332
298 298 298 297 297 296 296 294 293 292 294 294 295 295 295 295 294 294 294 294 294 292 292 292 292 291 292 294 294 294 299 305 310 319 325 332 331 332 336 337 337 338 334
296 297 297 296 296 295 296 294 294 293 293 294 295 295 295 294 294 294 294 294 293 293 292 292 291 290 290 293 290 293 298 310 316 321 323 328 330 330 330 332 333 339 341
296 296 296 295 295 296 296 294 294 294 294 292 292 292 292 293 294 294 294 294 294 294 293 291 291 290 287 291 292 290 289 291 294 318 322 325 327 328 329 332 334 335 341
295 296 295 295 295 295 296 294 292 291 289 291 290 291 292 293 293 294 294 294 294 293 292 291 291 288 288 288 291 293 293 294 292 296 316 320 324 325 327 329 331 333 337
295 295 295 295 295 295 294 294 292 291 290 290 290 290 291 292 293 293 293 293 292 292 292 291 289 288 289 289 289 290 292 293 295 293 299 303 320 323 326 328 328 332 333
295 295 295 294 294 294 294 293 292 291 289 288 288 288 289 290 291 292 291 289 291 291 291 290 288 288 289 290 290 291 291 290 290 291 293 296 301 312 323 327 328 329 333
Wind_Speed
18 19 24 25 26 27 26 26 26 27 26 27 27 27 27 27 28 28 22 18 12 8 8 8 8 9 9 10 8 8 9 9 6 7 8 9 14 16 19 17 17 19 18
16 17 22 24 25 26 26 27 26 28 29 29 29 29 28 27 27 27 26 24 17 14 13 10 9 10 10 9 8 8 10 8 8 9 11 13 16 20 21 17 15 19 18
14 14 16 24 24 24 25 26 27 27 28 29 29 28 27 27 26 26 26 25 27 16 15 16 12 11 11 9 8 8 9 10 10 11 13 11 15 20 20 16 17 19 18
13 13 16 24 22 23 24 24 25 26 27 28 29 29 29 27 26 26 25 24 26 26 16 16 17 14 11 9 8 8 10 11 11 13 11 11 14 18 20 18 18 19 18
15 15 17 25 23 23 23 24 24 25 27 28 28 29 28 28 27 25 24 24 25 26 26 17 17 17 14 11 9 8 11 12 12 13 13 13 12 17 21 18 18 19 19
13 14 16 23 23 23 23 24 24 24 25 27 28 28 28 28 27 27 23 23 22 24 24 23 21 16 16 11 11 11 11 13 14 13 13 12 14 20 21 18 17 17 16
13 13 15 23 23 23 23 23 23 23 24 26 27 28 28 27 26 26 25 23 22 23 24 24 23 24 17 14 12 11 11 13 16 13 13 14 14 20 22 19 17 18 18
11 12 14 18 22 22 22 23 22 23 24 25 27 27 27 26 26 26 25 24 22 22 23 22 24 25 22 17 13 12 13 16 13 13 15 13 15 20 23 20 18 19 19
8 9 10 12 16 18 21 23 22 23 24 26 26 27 27 25 25 25 24 24 25 23 23 23 22 23 25 20 15 14 15 16 14 10 14 11 18 21 23 21 19 19 20
8 10 12 14 16 15 15 22 21 22 24 25 25 26 24 23 24 24 24 22 24 25 24 22 23 22 25 23 17 14 16 17 13 14 11 11 20 22 24 23 21 20 21
8 10 12 13 14 15 15 13 15 18 21 22 21 25 19 14 16 20 21 22 23 24 23 24 23 24 22 22 20 13 15 11 12 9 8 13 21 23 24 23 22 21 22
11 10 10 11 13 13 12 13 12 12 12 13 15 17 13 15 14 16 17 20 22 24 24 24 22 21 18 9 10 15 9 11 11 10 9 16 21 23 25 24 23 23 22
7 8 9 9 10 11 11 10 7 8 9 10 16 16 14 12 12 11 9 9 11 17 12 16 13 10 12 9 9 11 10 12 8 8 12 19 23 24 25 25 25 24 23
7 7 7 8 9 10 9 10 9 9 10 10 13 16 13 9 12 11 9 12 11 10 14 14 10 11 13 11 10 13 12 9 9 8 11 21 24 25 26 27 26 26 24
7 8 8 8 9 10 12 10 10 9 10 12 12 14 12 12 12 12 11 11 12 12 11 12 14 13 13 12 10 10 15 11 13 9 8 19 24 25 26 29 29 28 26
7 7 8 8 9 11 11 13 10 9 11 11 11 13 15 12 12 12 12 12 12 13 11 10 13 13 12 11 12 9 17 10 10 15 10 11 19 24 26 28 29 29 28
7 7 7 7 9 11 13 12 9 10 10 11 11 14 15 14 13 14 11 12 12 12 14 12 12 11 12 11 13 13 11 10 8 12 13 11 13 22 24 28 29 29 28
7 7 7 7 10 11 12 10 9 10 9 10 10 11 15 15 14 12 9 10 11 10 10 10 10 11 11 10 9 10 11 10 8 14 11 12 11 11 17 24 28 28 28
8 7 8 8 9 10 10 9 11 12 9 9 10 10 14 14 14 12 10 8 10 9 10 10 11 11 13 10 10 11 11 8 7 12 14 14 14 13 13 17 24 25 27
7 5 5 6 8 10 8 9 9 9 9 9 10 10 13 12 14 12 10 11 9 8 9 10 12 13 13 11 13 11 9 8 8 10 9 10 12 14 15 18 13 15 24
9 6 7 8 9 9 8 9 9 10 10 9 10 14 14 14 15 13 11 12 12 10 10 12 10 17 12 12 9 9 8 8 11 10 8 8 11 11 14 15 14 12 13
7 6 7 8 10 9 7 8 8 9 9 9 10 12 14 15 14 12 13 12 14 11 13 13 16 13 11 10 7 6 6 2 6 12 8 9 11 9 10 13 14 18 17
6 6 6 8 10 9 9 7 8 9 9 10 11 11 13 14 14 14 15 14 14 12 10 13 15 15 9 10 12 6 5 5 7 5 11 6 11 9 11 11 14 15 17
4 4 6 7 9 9 9 10 13 11 12 10 11 11 11 14 14 14 15 15 14 11 12 13 13 10 10 10 7 7 7 7 4 6 1 10 9 11 12 9 12 14 15
2 5 5 6 8 8 9 10 10 12 10 10 10 12 13 12 14 14 15 15 14 10 12 15 14 12 8 7 8 7 7 7 5 4 4 6 8 10 10 11 10 11 15
3 4 5 7 7 8 9 10 12 13 14 12 12 10 11 11 11 14 15 13 14 12 11 13 12 13 11 9 8 8 7 4 7 5 4 4 7 2 10 11 12 12 11
Wind_Direction
344 341 344 355 1 6 5 9 9 8 7 10 13 11 12 10 7 2 353 334 310 272 253 235 224 229 233 245 245 214 187 188 207 188 170 169 152 142 141 139 144 130 135
339 342 344 2 2 10 10 11 12 14 13 10 7 8 7 9 6 5 5 358 326 302 277 258 244 234 246 248 244 225 192 194 177 163 155 153 144 138 138 143 142 129 136
351 346 344 7 6 9 11 14 16 16 16 14 13 10 6 8 3 1 1 0 357 316 294 275 253 241 244 250 242 230 192 176 170 154 153 150 145 136 139 137 127 136 131
1 359 357 9 10 10 14 12 16 17 17 16 14 13 12 5 2 356 355 358 358 353 310 287 276 256 250 237 233 227 188 173 165 155 160 157 146 143 143 140 138 137 135
12 8 3 10 12 11 14 13 14 16 16 15 14 12 11 9 6 358 356 350 352 357 355 325 287 278 260 243 224 219 189 176 164 169 164 162 154 152 149 149 146 142 148
18 14 8 13 14 11 12 14 15 17 17 14 13 11 8 7 6 3 355 351 350 344 350 353 348 310 283 249 221 214 192 179 165 177 168 161 164 156 153 157 148 140 138
18 15 16 15 15 14 12 16 16 17 16 14 11 9 6 4 5 5 2 354 350 344 341 350 349 342 326 268 227 213 184 172 184 179 173 170 168 163 156 154 151 146 146
16 13 16 15 17 18 15 20 17 18 15 11 8 7 4 4 3 4 4 359 351 344 339 341 341 343 335 322 243 208 187 178 186 177 180 174 162 168 160 157 153 149 151
19 15 17 19 19 20 20 23 17 18 13 10 9 5 1 1 1 1 360 3 358 349 342 335 331 338 330 324 288 210 185 182 188 182 183 178 169 171 166 162 159 153 151
18 20 17 19 18 17 19 13 15 14 12 10 10 6 2 359 357 359 356 359 358 355 344 334 333 331 328 325 304 226 194 177 188 187 190 186 171 174 172 164 163 156 149
23 22 18 16 17 17 19 10 8 6 9 7 7 4 1 358 353 354 353 353 354 352 350 342 335 336 332 335 324 245 202 192 188 192 188 169 175 180 176 166 166 160 153
17 13 17 14 14 14 15 10 8 7 8 8 5 2 0 354 352 350 347 352 351 348 346 348 341 342 340 333 327 320 213 195 189 190 193 179 178 185 179 169 168 164 159
346 3 8 5 7 9 11 8 10 7 5 2 3 3 357 351 353 352 344 349 348 348 346 344 344 352 326 338 315 308 306 199 193 185 197 186 182 187 180 173 171 167 163
342 353 356 359 3 9 6 11 7 10 7 2 359 0 357 355 353 351 347 342 344 344 343 343 338 327 326 329 302 311 299 265 198 187 201 190 185 185 184 178 176 171 167
321 350 359 358 6 4 10 7 8 7 10 1 2 3 359 353 352 347 346 345 342 339 342 339 338 337 322 327 314 328 295 296 212 197 196 198 188 185 185 182 180 175 171
320 350 350 1 5 8 10 6 9 6 5 6 6 4 360 353 351 348 346 345 344 340 338 335 334 335 328 317 302 331 279 286 291 200 199 197 194 187 184 185 182 178 177
315 335 350 358 9 11 7 9 11 9 2 9 7 5 2 359 353 348 346 344 340 332 332 335 336 331 332 317 322 296 303 291 291 227 197 199 201 194 184 190 184 180 179
316 336 357 12 12 9 7 10 9 4 4 9 7 2 1 356 351 348 344 341 334 333 329 334 336 333 330 323 311 299 297 284 282 288 195 202 195 194 193 192 185 182 180
314 332 9 14 15 6 9 9 5 1 5 5 2 359 358 352 344 344 343 336 334 328 332 333 335 332 330 322 307 292 270 272 274 270 193 199 202 189 188 193 184 180 178
349 355 24 26 15 7 6 7 360 2 5 1 355 350 349 351 343 337 339 337 335 329 332 334 333 335 328 323 308 287 275 269 246 243 209 190 196 199 184 189 181 184 175
15 34 34 25 17 11 10 3 356 1 360 354 350 348 345 345 347 339 340 341 339 334 335 335 336 340 337 334 324 323 267 231 230 230 257 193 189 196 190 180 187 181 182
7 35 43 30 21 15 12 357 350 351 352 348 348 344 345 346 350 346 344 341 343 340 344 349 351 342 338 341 332 309 327 272 230 221 227 209 177 186 199 189 180 180 182
30 38 42 32 21 16 9 353 358 358 355 353 348 347 349 353 355 355 350 344 350 347 353 353 350 352 334 339 349 1 340 329 336 230 204 194 173 177 199 195 185 190 182
48 57 41 32 23 18 6 357 4 2 356 349 344 346 347 355 357 357 354 348 351 348 355 354 351 341 337 339 343 348 332 309 331 313 291 203 204 181 188 191 191 186 190
67 55 35 30 26 16 6 8 9 6 352 343 347 349 356 355 357 357 355 348 350 355 343 354 355 340 338 338 342 338 343 319 33 317 314 360 201 196 189 193 191 183 186
79 50 33 25 20 10 5 15 18 5 352 348 355 355 358 356 354 359 356 349 343 349 347 355 340 341 345 342 343 345 358 354 341 338 320 321 313 252 212 192 188 184 184